Temp
7 7 8 9 9 10 11 12 12 13 13 13 12 12 11 11 12 12 11 10 10 10 9 9 9 8 7 8 7 7 7 7 7 7 6 6 5 5 5 5 5 4 4 3
6 7 8 9 10 10 11 11 12 13 13 14 13 12 12 13 13 11 12 10 10 11 10 9 9 9 7 8 8 7 7 7 7 6 6 6 5 5 5 5 5 4 4 3
7 8 8 8 8 9 10 11 11 12 13 13 13 13 12 12 13 13 12 11 7 10 11 10 10 9 8 8 8 8 8 7 6 6 6 6 6 6 5 5 5 4 4 3
8 8 8 8 8 8 9 10 11 11 11 11 12 12 13 13 13 13 13 12 9 10 11 10 10 10 9 9 8 8 7 7 6 6 6 6 6 5 5 5 5 4 4 4
8 8 9 9 9 9 9 9 9 9 10 10 11 12 12 12 13 13 13 12 11 11 11 11 11 10 9 9 8 8 7 7 6 6 6 6 6 6 6 5 5 5 4 4
8 8 9 9 9 10 10 10 9 9 9 10 10 11 11 12 13 14 13 12 12 10 10 9 10 10 10 9 8 8 8 7 7 6 6 6 5 5 5 5 5 5 4 4
7 8 8 9 9 10 10 10 9 9 9 10 10 10 11 11 13 13 12 12 11 9 10 10 10 10 10 10 9 8 8 8 7 7 6 6 5 5 5 5 5 4 5 4
8 8 9 9 9 9 10 10 9 9 10 11 11 10 10 11 13 13 12 11 11 9 10 10 10 10 10 10 9 9 8 8 7 7 6 6 6 5 5 5 5 4 4 4
8 8 8 8 9 9 9 9 9 10 10 10 11 10 12 12 13 13 12 12 12 10 10 9 10 10 10 10 9 9 8 8 7 7 6 6 6 5 5 5 5 4 4 4
6 7 8 8 8 9 10 9 9 9 8 9 11 11 12 12 12 13 13 12 12 11 10 9 10 10 10 10 9 9 9 8 7 7 7 6 6 6 5 4 5 4 4 4
6 6 7 7 8 9 9 9 9 9 9 9 10 11 11 12 12 11 12 12 12 11 10 10 9 10 10 9 9 9 9 8 8 7 7 7 6 6 6 5 5 5 4 4
4 5 6 7 7 8 8 9 9 8 8 10 10 10 11 11 11 11 9 11 11 11 10 9 8 8 9 9 9 9 9 8 8 8 7 7 6 6 6 5 5 5 5 5
3 3 5 5 6 7 8 9 9 9 9 9 9 10 10 11 11 11 10 11 11 11 10 9 8 8 8 9 9 9 9 8 8 8 8 7 7 7 7 6 5 5 5 5
-0 -0 1 4 4 5 6 8 8 9 9 9 9 10 10 10 11 10 10 10 12 11 10 9 8 8 8 9 9 9 8 8 8 8 8 8 8 7 7 6 6 5 5 5
-3 -3 0 2 3 4 5 7 8 9 9 9 9 10 9 10 11 11 11 11 11 11 10 9 8 8 8 9 9 8 8 8 8 8 8 8 8 7 7 7 7 6 6 6
-3 -3 -1 -1 2 3 4 5 8 9 9 9 9 9 9 10 10 11 11 11 11 10 10 9 8 8 8 9 8 8 8 8 8 8 7 7 7 7 7 7 7 7 7 6
-6 -4 -3 -1 2 3 5 5 8 8 9 9 9 9 9 10 10 10 10 10 10 10 9 9 8 7 8 9 9 9 8 8 8 7 7 7 7 7 7 7 7 7 6 6
-7 -6 -6 -4 0 2 5 5 7 8 8 8 9 9 9 10 10 10 10 8 8 9 9 8 8 7 8 8 9 9 8 8 8 7 7 7 7 7 7 7 6 6 6 6
-6 -6 -5 -4 -1 2 4 6 7 7 8 9 9 9 9 10 10 10 9 8 7 7 9 8 8 9 9 8 8 8 8 8 7 7 7 7 7 6 6 6 6 6 5 5
-5 -6 -6 -4 -2 1 3 6 7 7 8 9 9 9 9 9 10 10 9 9 7 5 7 8 8 8 8 8 8 8 8 7 7 7 7 7 6 6 6 6 6 6 5 5
-4 -4 -5 -5 -4 -2 3 5 7 7 8 8 9 9 9 9 9 9 9 9 8 8 8 8 8 8 8 7 7 7 7 7 7 7 6 6 6 5 5 5 5 5 4 4
-4 -4 -4 -5 -4 -3 4 6 7 7 8 8 9 9 9 9 9 9 9 8 8 8 8 8 8 8 6 6 7 7 7 7 7 6 5 5 5 5 4 4 4 4 3 3
-3 -2 -2 -2 -1 3 3 4 5 6 7 7 8 8 8 9 8 8 8 8 7 7 7 7 6 5 5 5 6 7 7 6 6 5 5 5 4 4 4 3 3 2 2 2
-1 -1 -3 -3 -1 1 1 3 3 4 5 6 6 7 8 8 8 7 7 7 6 4 2 4 4 4 5 6 6 6 6 5 5 4 4 3 3 3 2 2 2 1 1 0
-2 -2 -2 -3 -2 -1 -0 1 1 2 3 4 6 7 6 7 7 6 5 3 2 1 0 1 3 3 4 4 5 4 4 3 3 2 2 2 2 1 1 1 0 0 0 0
-3 -3 -3 -3 -1 -2 -2 -1 -0 0 1 2 3 4 3 2 0 1 1 1 -0 -1 -1 -0 1 2 3 3 3 2 2 1 1 1 1 1 0 0 -0 -0 -0 -0 -0 -0
Height
3125 3127 3122 3129 3132 3133 3135 3133 3130 3130 3131 3132 3133 3132 3134 3131 3135 3136 3134 3133 3134 3135 3138 3139 3142 3143 3144 3144 3146 3147 3149 3152 3154 3156 3158 3159 3161 3161 3163 3164 3165 3167 3168 3170
3122 3115 3122 3129 3131 3131 3131 3128 3126 3126 3125 3126 3124 3128 3128 3128 3123 3130 3132 3125 3128 3130 3132 3135 3138 3140 3141 3142 3143 3145 3146 3149 3152 3154 3155 3157 3159 3159 3160 3162 3163 3165 3166 3167
3114 3114 3120 3122 3124 3124 3123 3123 3124 3124 3121 3121 3120 3120 3124 3123 3123 3125 3124 3119 3128 3128 3128 3131 3134 3136 3137 3139 3140 3142 3144 3147 3149 3151 3153 3154 3156 3157 3158 3160 3161 3163 3164 3165
3111 3114 3116 3116 3116 3120 3117 3121 3121 3120 3119 3117 3120 3114 3113 3116 3116 3119 3120 3119 3118 3122 3124 3126 3129 3131 3133 3135 3137 3139 3141 3144 3146 3148 3150 3152 3154 3155 3156 3157 3158 3160 3161 3162
3097 3108 3109 3111 3110 3115 3110 3117 3117 3119 3119 3118 3110 3111 3107 3111 3111 3111 3113 3114 3116 3116 3117 3119 3123 3127 3130 3131 3134 3136 3138 3140 3143 3145 3148 3150 3151 3152 3153 3154 3155 3157 3158 3159
3094 3103 3104 3104 3107 3108 3111 3112 3112 3115 3116 3112 3104 3110 3098 3104 3102 3103 3104 3104 3106 3114 3113 3116 3119 3122 3125 3126 3129 3132 3134 3137 3139 3142 3144 3146 3148 3150 3151 3152 3152 3153 3155 3156
3090 3095 3097 3099 3098 3101 3103 3105 3105 3107 3104 3093 3103 3104 3089 3097 3096 3097 3099 3100 3101 3105 3106 3110 3112 3116 3120 3122 3125 3128 3130 3133 3136 3138 3140 3143 3145 3146 3148 3149 3149 3151 3151 3153
3087 3086 3089 3091 3093 3094 3095 3096 3097 3091 3093 3087 3093 3089 3077 3089 3090 3092 3094 3095 3091 3099 3102 3104 3107 3111 3115 3119 3122 3124 3126 3129 3132 3134 3136 3138 3141 3143 3144 3145 3146 3147 3148 3150
3082 3076 3081 3080 3084 3087 3086 3087 3086 3091 3091 3086 3081 3081 3079 3082 3082 3085 3083 3090 3091 3092 3096 3098 3102 3106 3110 3114 3117 3120 3122 3124 3127 3130 3132 3134 3136 3139 3140 3141 3142 3143 3144 3146
3075 3070 3071 3073 3074 3072 3072 3079 3084 3082 3080 3078 3072 3072 3068 3073 3075 3078 3082 3081 3085 3089 3089 3092 3096 3100 3105 3109 3113 3116 3118 3120 3122 3125 3128 3129 3131 3134 3136 3138 3138 3139 3140 3141
3073 3069 3059 3066 3065 3063 3065 3064 3069 3073 3072 3068 3064 3062 3066 3068 3067 3069 3068 3075 3077 3081 3085 3088 3091 3095 3100 3104 3108 3112 3114 3116 3118 3120 3122 3125 3127 3129 3131 3133 3134 3136 3136 3137
3065 3062 3055 3052 3055 3056 3055 3055 3056 3061 3062 3060 3062 3048 3062 3062 3062 3066 3069 3068 3073 3074 3077 3082 3086 3090 3094 3099 3103 3107 3110 3112 3114 3116 3117 3120 3122 3124 3126 3128 3130 3131 3132 3133
3057 3052 3046 3042 3045 3043 3043 3042 3046 3048 3053 3054 3053 3037 3057 3057 3058 3058 3063 3063 3066 3066 3070 3075 3081 3085 3089 3093 3098 3102 3105 3108 3110 3112 3113 3115 3117 3119 3121 3123 3124 3126 3127 3128
3047 3042 3042 3039 3033 3038 3035 3034 3036 3038 3039 3040 3043 3042 3050 3050 3052 3052 3055 3058 3061 3062 3065 3071 3076 3079 3084 3089 3093 3097 3101 3103 3105 3108 3110 3111 3113 3114 3116 3118 3119 3120 3121 3122
3036 3028 3027 3024 3025 3028 3025 3024 3024 3024 3029 3028 3029 3036 3043 3043 3045 3050 3050 3054 3056 3058 3064 3066 3070 3073 3078 3083 3088 3092 3095 3097 3100 3102 3104 3107 3108 3110 3111 3113 3114 3115 3116 3117
3021 3020 3014 3010 3012 3014 3012 3010 3012 3014 3018 3020 3023 3029 3036 3037 3039 3042 3042 3049 3048 3050 3058 3060 3064 3069 3072 3078 3083 3086 3088 3091 3093 3096 3098 3100 3102 3104 3105 3107 3108 3109 3110 3110
3008 3006 3007 2997 3002 3002 2993 2995 3000 3004 3006 3009 3011 3020 3029 3030 3029 3033 3032 3040 3044 3043 3047 3053 3058 3062 3066 3071 3076 3080 3083 3084 3087 3089 3091 3093 3095 3097 3099 3100 3101 3103 3103 3103
2995 2997 2998 2993 2989 2969 2982 2986 2991 2993 2999 3003 3007 3011 3017 3021 3024 3027 3030 3031 3033 3039 3043 3046 3050 3055 3060 3065 3069 3073 3076 3078 3080 3082 3084 3086 3087 3089 3091 3093 3093 3094 3095 3095
2983 2986 2986 2983 2972 2973 2969 2975 2981 2983 2985 2992 2996 3002 3008 3013 3017 3018 3022 3022 3031 3031 3031 3037 3045 3049 3054 3059 3063 3067 3069 3072 3074 3076 3078 3079 3080 3081 3083 3084 3085 3086 3086 3087
2967 2973 2979 2974 2965 2953 2960 2970 2977 2980 2971 2982 2988 2993 2998 3004 3006 3009 3017 3018 3014 3021 3024 3032 3036 3041 3047 3052 3056 3060 3061 3063 3067 3069 3071 3072 3073 3075 3075 3076 3078 3079 3079 3079
2955 2959 2963 2966 2963 2954 2951 2962 2970 2962 2968 2975 2979 2983 2990 2994 2999 3006 3006 3009 3014 3018 3021 3025 3028 3033 3038 3044 3048 3050 3053 3056 3059 3061 3063 3064 3066 3067 3068 3068 3069 3071 3071 3070
2943 2947 2951 2950 2959 2957 2954 2953 2952 2956 2962 2965 2970 2974 2980 2988 2992 2991 2996 3001 3006 3011 3014 3017 3021 3026 3031 3036 3039 3041 3044 3048 3051 3053 3055 3056 3058 3059 3059 3060 3061 3061 3061 3061
2931 2931 2939 2945 2943 2944 2936 2938 2940 2945 2944 2956 2960 2966 2971 2976 2979 2984 2988 2994 2999 3004 3008 3011 3014 3020 3024 3027 3030 3034 3037 3040 3043 3045 3047 3048 3049 3049 3050 3051 3051 3052 3052 3053
2922 2926 2928 2935 2931 2932 2939 2936 2937 2941 2944 2950 2953 2957 2961 2964 2970 2976 2983 2988 2993 2998 3001 3004 3008 3012 3016 3019 3023 3026 3029 3032 3034 3036 3038 3039 3040 3041 3042 3042 3043 3044 3044 3044
2915 2921 2920 2921 2923 2927 2923 2930 2937 2930 2933 2940 2949 2952 2955 2958 2964 2970 2976 2982 2987 2994 2997 2999 3002 3007 3010 3013 3016 3018 3021 3024 3026 3028 3030 3030 3032 3033 3034 3034 3034 3034 3035 3036
2913 2913 2914 2916 2920 2925 2927 2931 2933 2933 2937 2935 2941 2945 2950 2957 2963 2968 2972 2976 2981 2987 2990 2993 2997 3001 3004 3007 3010 3012 3015 3017 3020 3021 3022 3024 3025 3026 3026 3026 3026 3026 3025 3024
Wind_Speed
19 23 34 31 31 30 29 34 33 31 25 29 27 27 28 26 21 15 23 23 22 18 16 17 17 17 15 10 12 12 11 12 13 12 12 12 12 12 13 14 14 14 13 12
20 35 28 25 26 30 31 36 36 36 35 26 30 30 29 27 25 26 20 27 27 18 20 21 19 20 18 9 11 13 13 13 13 13 12 12 12 13 14 14 14 15 14 13
27 28 24 26 28 30 32 33 35 36 35 29 27 34 34 26 23 19 24 24 27 21 20 22 18 21 19 11 12 12 13 13 13 14 14 13 13 13 13 14 11 14 14 14
29 25 26 27 32 29 33 33 34 31 32 31 26 29 33 27 30 29 31 23 30 25 23 22 17 19 19 11 14 15 14 14 14 15 15 13 11 11 11 13 12 13 14 15
41 28 29 31 36 25 36 33 28 24 33 38 40 28 28 26 31 34 33 33 26 32 29 25 17 16 16 15 15 16 16 16 16 16 15 15 14 12 12 12 12 12 14 14
39 30 30 36 33 33 32 28 29 28 30 27 42 36 40 34 39 31 28 40 30 38 34 28 18 17 16 17 16 15 15 16 17 17 17 16 15 14 14 14 14 13 13 14
38 33 34 33 34 33 30 35 21 20 21 22 34 36 47 35 35 24 25 32 28 44 36 30 25 20 20 18 14 14 12 13 16 18 19 18 17 17 17 16 17 15 15 14
32 31 32 35 37 36 31 31 24 26 16 21 35 35 53 41 35 28 16 25 17 36 40 33 22 23 20 17 15 13 12 12 13 15 19 20 20 20 20 19 17 17 15 13
34 41 34 39 35 39 39 38 39 33 35 24 29 31 39 36 33 32 23 22 20 37 35 30 22 28 23 19 14 10 11 13 14 14 16 20 21 22 22 20 17 16 16 17
42 41 41 37 38 39 46 42 33 36 21 23 31 35 31 32 35 32 28 31 28 25 30 28 28 31 27 20 16 13 10 12 15 14 14 17 19 20 21 22 19 15 18 16
37 42 49 40 40 43 40 46 35 38 34 18 19 33 40 35 26 26 22 26 25 29 32 34 32 32 30 24 20 14 10 11 14 16 15 17 18 18 20 20 20 16 17 18
37 46 41 44 44 43 46 43 47 34 37 33 35 42 36 34 21 23 32 26 27 32 32 33 31 34 33 28 24 17 13 9 11 13 14 15 17 17 19 19 19 19 19 19
37 35 42 43 44 48 48 50 41 48 44 40 25 36 33 37 29 23 22 31 30 31 31 30 33 36 34 31 26 18 13 11 12 12 13 15 16 16 15 16 19 19 20 23
43 48 47 33 39 46 43 50 51 44 35 41 48 40 36 34 34 27 31 23 27 30 31 27 35 37 34 33 28 21 16 15 20 17 14 14 14 13 13 14 17 18 20 21
48 49 49 53 54 52 65 54 52 46 49 42 45 38 41 36 33 30 23 27 24 31 26 30 35 37 34 34 28 23 21 22 24 25 21 17 18 17 16 16 16 18 19 19
40 52 41 49 55 51 59 62 58 51 46 46 51 41 43 39 35 29 34 28 31 30 30 33 36 39 34 29 26 24 23 22 28 28 27 24 24 24 23 23 22 21 22 24
36 29 28 40 52 55 57 65 52 56 43 49 50 46 43 42 41 33 30 34 34 34 36 35 31 29 28 30 27 25 23 23 24 25 29 29 28 27 28 28 28 28 29 30
52 42 37 25 39 40 52 61 47 45 51 47 48 41 42 45 42 38 38 40 29 35 38 37 38 38 34 31 28 29 24 20 21 22 24 28 33 32 32 32 33 33 33 34
45 40 26 22 35 37 51 49 49 49 49 50 41 42 37 38 40 42 32 27 43 32 43 40 39 37 36 34 31 29 28 23 23 23 24 24 28 30 31 31 31 32 34 34
44 43 43 26 12 28 49 46 47 45 52 45 48 38 33 37 40 40 37 29 38 36 36 38 37 34 38 39 37 33 30 28 27 26 26 25 24 24 25 26 27 27 29 31
35 42 43 41 22 21 39 48 47 55 42 45 43 44 36 37 38 38 37 38 38 36 39 35 33 39 38 38 35 34 31 30 30 29 28 27 26 26 27 29 29 28 30 32
41 37 36 31 22 23 28 39 54 51 42 41 38 35 41 28 36 31 35 33 35 36 36 38 38 37 32 33 33 34 33 34 33 30 28 27 28 29 29 30 29 29 30 30
47 43 40 25 32 28 18 15 29 16 31 30 27 30 36 41 36 35 37 33 33 35 35 37 34 31 32 34 37 35 34 35 32 30 30 31 32 32 31 30 29 28 27 26
33 29 42 34 28 26 26 17 20 12 28 26 22 33 30 41 42 40 40 34 32 26 28 33 34 34 36 36 34 33 34 30 29 29 29 29 30 29 30 32 30 28 28 28
21 27 28 36 38 22 14 15 6 13 19 26 27 26 33 39 40 38 35 31 33 32 30 32 32 32 32 32 32 30 27 26 25 25 25 27 29 28 28 29 30 30 30 30
25 22 25 20 20 31 24 13 16 8 14 25 29 31 30 29 31 31 35 37 38 37 33 31 29 28 28 27 25 23 21 21 22 25 28 30 30 31 31 32 34 36 37 38
Wind_Direction
217 221 222 226 233 239 245 252 253 250 246 250 242 230 236 253 213 214 221 217 222 225 230 236 231 239 245 272 226 227 224 221 229 232 235 238 232 235 233 232 231 221 229 233
221 233 228 236 245 245 247 253 256 262 260 247 230 242 240 240 247 221 244 214 223 223 226 231 237 237 239 258 222 220 213 214 225 228 232 234 231 232 232 233 237 223 228 229
231 238 240 229 241 243 248 255 259 263 269 280 260 238 249 242 251 250 224 239 225 236 238 237 244 237 240 251 227 219 212 214 223 226 231 236 234 233 237 239 243 230 231 229
244 247 239 239 240 243 255 246 254 278 281 283 255 265 254 248 257 242 236 225 207 233 237 231 240 239 244 250 221 216 214 217 222 226 231 237 237 242 238 243 248 234 234 232
247 242 239 242 241 240 251 248 266 269 255 270 267 274 263 252 247 247 234 202 223 244 247 241 241 242 239 243 232 227 225 223 225 229 230 232 237 241 247 254 258 249 242 238
255 252 248 246 248 246 253 250 252 256 257 262 255 260 266 254 256 252 220 220 233 236 237 229 228 226 229 235 228 226 232 231 230 232 233 235 238 244 256 266 270 261 251 247
257 254 251 251 257 248 242 246 244 244 235 247 246 253 257 256 255 260 242 243 256 213 224 227 220 226 222 221 217 223 231 233 233 235 240 241 239 248 258 269 272 261 258 256
267 270 249 248 247 250 244 246 227 241 243 250 246 229 251 246 252 259 225 229 204 206 230 225 229 222 215 211 213 224 235 235 232 234 242 248 247 250 257 269 276 268 255 270
266 265 267 263 253 240 244 242 242 250 253 270 259 267 254 253 248 242 232 230 195 206 219 225 240 212 206 213 215 215 228 236 240 236 234 243 248 248 255 264 276 263 263 273
275 284 269 265 266 263 234 238 244 247 243 246 253 252 252 236 248 241 230 207 206 205 215 227 239 207 206 213 204 206 229 243 249 248 238 238 247 249 251 253 269 263 265 266
269 277 278 273 263 260 265 225 225 246 236 241 253 250 249 260 230 251 231 220 218 210 219 231 222 209 209 212 207 208 218 248 254 261 259 252 254 256 254 256 263 264 260 262
267 276 274 274 268 261 258 260 221 228 246 239 245 254 247 258 278 240 232 231 222 217 215 221 210 212 212 213 210 208 216 237 260 258 259 255 257 258 258 260 263 260 260 264
259 277 280 278 276 260 257 252 246 226 235 250 234 253 249 249 246 241 237 221 212 215 209 210 207 213 219 214 211 214 223 235 244 251 261 263 263 263 259 259 263 265 269 266
259 268 271 265 264 266 274 249 249 230 227 238 245 255 242 251 254 250 232 221 205 207 202 206 203 213 222 214 215 225 230 245 241 248 255 266 261 262 263 258 259 266 272 276
258 269 267 265 262 263 261 257 246 240 226 235 240 242 242 245 251 236 223 212 207 190 193 199 205 217 224 213 218 228 240 248 239 246 253 256 252 255 260 263 265 266 268 276
263 266 266 263 258 258 255 259 241 243 223 234 242 244 241 242 246 244 237 220 205 203 207 209 211 219 218 211 221 231 251 248 245 244 247 250 250 253 258 263 266 268 272 274
254 257 263 260 246 247 245 249 243 237 237 233 237 240 243 243 243 257 218 209 216 212 198 203 206 212 214 219 227 236 244 254 249 247 248 248 252 253 258 263 267 270 272 273
254 260 265 270 245 241 238 240 241 242 236 235 237 237 238 238 237 247 247 228 214 205 198 195 198 206 218 228 237 234 242 254 250 251 252 254 256 256 257 261 265 267 268 270
247 244 253 246 246 241 236 235 235 246 245 234 242 233 234 236 237 243 237 235 226 215 204 207 217 226 227 229 235 237 244 255 256 254 260 261 258 258 261 263 265 266 267 271
242 237 244 254 276 238 234 228 226 241 245 238 241 243 229 229 234 235 244 200 194 201 203 211 222 238 239 231 230 234 240 251 255 255 254 255 257 259 263 266 267 268 271 273
229 216 221 239 254 264 236 230 225 235 236 235 236 235 231 231 228 232 228 216 221 216 222 238 243 244 241 229 226 231 236 246 253 253 253 256 260 265 267 269 270 270 268 269
251 210 223 243 243 252 217 224 230 237 239 232 228 228 223 230 220 220 218 218 227 233 238 242 241 239 228 221 227 233 240 248 253 254 255 261 267 269 267 267 266 266 267 269
245 217 221 214 221 236 254 241 209 219 218 222 223 220 225 228 217 215 219 217 222 234 237 234 226 218 212 218 228 237 243 247 247 251 260 266 269 269 271 271 271 270 270 271
238 229 231 251 223 214 234 240 217 232 212 213 220 217 221 209 210 210 216 217 218 211 210 217 213 213 220 226 233 239 243 243 249 257 264 267 268 271 273 275 272 271 273 272
229 233 236 241 240 223 230 202 138 147 167 186 197 199 189 199 199 205 205 187 177 180 198 212 213 211 215 225 232 235 239 246 253 259 261 265 269 270 271 272 273 274 271 272
263 258 250 232 260 258 263 167 111 124 172 167 179 184 175 164 150 166 173 175 177 181 190 203 206 208 215 221 231 238 242 246 253 259 265 269 269 269 270 272 274 276 279 281